Voltar ao catálogo

STARLINK-35531

AtivoComunicaçõesVLEO
NORAD 66112·PAYLOAD·🇺🇸 United States

Lançado Oct 19, 2025 de Vandenberg Space Force Base

Loading…

Próximas Passagens (próximas 24 horas)

TLE

AtualizadoSource: CelesTrak SupGP

Época: Sep 14, 2026, 20:53 UTC

1 66112C 25236AC  26257.87062500 -.00002593  00000+0 -76658-4 0  2577
2 66112  53.1574 303.7452 0001279 101.4716  83.8544 15.34366609    12

Acompanhe STARLINK-35531 em tempo real com AllMySat

Download on the App Store